Wetterdaten: aktuell Donnerstag, 23.09.2021 23:00
Datum Zeit Temp. I. Temp. A. Feuchte A. Luftdruck Regen Wind Richtung Richtung Sonnenschein Taupunkt Windchill Windben
23.09.2021 23:00 21,8 C 17,5 C 43 % 1007,1 hPa 0,0 l/m 11,9 km/h (2 Bft) NW 315 0 min 4,8 C 15,2 C 18,8 km/h (3 Bft)
23.09.2021 22:50 21,8 C 17,5 C 42 % 1007,1 hPa 0,0 l/m 9,3 km/h (2 Bft) W-NW 292 0 min 4,4 C 16,2 C 16,7 km/h (3 Bft)
23.09.2021 22:40 21,8 C 17,6 C 42 % 1007,1 hPa 0,0 l/m 11,4 km/h (2 Bft) NW 315 0 min 4,5 C 15,5 C 28,2 km/h (4 Bft)
23.09.2021 22:30 21,8 C 17,6 C 41 % 1007,1 hPa 0,0 l/m 11,1 km/h (2 Bft) N-NW 337 0 min 4,2 C 15,6 C 14,8 km/h (3 Bft)
23.09.2021 22:20 21,8 C 17,5 C 42 % 1007,2 hPa 0,0 l/m 11,3 km/h (2 Bft) SO 135 0 min 4,4 C 15,4 C 26,4 km/h (4 Bft)
23.09.2021 22:10 21,8 C 17,4 C 42 % 1007,2 hPa 0,0 l/m 9,8 km/h (2 Bft) NW 315 0 min 4,4 C 15,8 C 9,0 km/h (2 Bft)
23.09.2021 22:00 21,8 C 17,4 C 42 % 1007,2 hPa 0,0 l/m 9,5 km/h (2 Bft) N-NW 337 0 min 4,4 C 16,0 C 8,2 km/h (2 Bft)
23.09.2021 21:50 21,8 C 17,3 C 42 % 1007,2 hPa 0,0 l/m 10,0 km/h (2 Bft) W-SW 247 0 min 4,3 C 15,7 C 14,8 km/h (3 Bft)
23.09.2021 21:40 21,8 C 17,2 C 42 % 1007,0 hPa 0,0 l/m 8,2 km/h (2 Bft) W-SW 247 0 min 4,2 C 16,3 C 11,3 km/h (2 Bft)
23.09.2021 21:30 21,8 C 17,3 C 42 % 1007,0 hPa 0,0 l/m 7,9 km/h (2 Bft) W 270 0 min 4,3 C 16,6 C 12,4 km/h (3 Bft)
23.09.2021 21:20 21,8 C 17,3 C 42 % 1006,6 hPa 0,0 l/m 7,7 km/h (2 Bft) W 270 0 min 4,3 C 16,7 C 10,6 km/h (2 Bft)
23.09.2021 21:10 21,8 C 17,3 C 42 % 1006,6 hPa 0,0 l/m 7,4 km/h (2 Bft) W-SW 247 0 min 4,3 C 16,8 C 8,4 km/h (2 Bft)
23.09.2021 21:00 21,8 C 17,4 C 41 % 1007,4 hPa 0,0 l/m 7,4 km/h (2 Bft) W-SW 247 0 min 4,0 C 16,9 C 10,9 km/h (2 Bft)
23.09.2021 20:50 21,8 C 17,4 C 41 % 1007,4 hPa 0,0 l/m 7,1 km/h (2 Bft) S 180 0 min 4,0 C 17,1 C 8,4 km/h (2 Bft)
23.09.2021 20:40 21,8 C 17,4 C 41 % 1007,2 hPa 0,0 l/m 8,0 km/h (2 Bft) W 270 0 min 4,0 C 16,6 C 12,4 km/h (3 Bft)
23.09.2021 20:30 21,8 C 17,2 C 42 % 1007,2 hPa 0,0 l/m 8,5 km/h (2 Bft) SW 225 0 min 4,2 C 16,2 C 12,9 km/h (3 Bft)
23.09.2021 20:20 21,8 C 17,1 C 42 % 1007,7 hPa 0,0 l/m 6,8 km/h (2 Bft) S 180 0 min 4,1 C 16,9 C 11,7 km/h (2 Bft)
23.09.2021 20:10 21,8 C 17,0 C 42 % 1007,7 hPa 0,0 l/m 6,6 km/h (2 Bft) NW 315 0 min 4,0 C 16,9 C 11,1 km/h (2 Bft)
23.09.2021 20:00 21,8 C 16,9 C 43 % 1007,9 hPa 0,0 l/m 5,6 km/h (1 Bft) W 270 0 min 4,2 C 16,9 C 4,5 km/h (1 Bft)
23.09.2021 19:50 21,8 C 17,0 C 43 % 1007,9 hPa 0,0 l/m 5,3 km/h (1 Bft) S 180 0 min 4,3 C 17,0 C 7,4 km/h (2 Bft)
23.09.2021 19:40 21,9 C 16,9 C 43 % 1008,1 hPa 0,0 l/m 6,1 km/h (2 Bft) NW 315 0 min 4,2 C 16,9 C 10,8 km/h (2 Bft)
23.09.2021 19:30 21,9 C 16,9 C 44 % 1008,1 hPa 0,0 l/m 5,1 km/h (1 Bft) SW 225 0 min 4,6 C 16,9 C 8,9 km/h (2 Bft)
23.09.2021 19:20 21,9 C 17,0 C 44 % 1008,2 hPa 0,0 l/m 4,5 km/h (1 Bft) O 90 0 min 4,7 C 17,0 C 6,8 km/h (2 Bft)
23.09.2021 19:10 22,0 C 17,2 C 43 % 1008,2 hPa 0,0 l/m 5,1 km/h (1 Bft) W-SW 247 0 min 4,5 C 17,2 C 8,2 km/h (2 Bft)
23.09.2021 19:00 22,0 C 17,3 C 43 % 1008,6 hPa 0,0 l/m 5,0 km/h (1 Bft) W 270 0 min 4,6 C 17,3 C 6,3 km/h (2 Bft)
23.09.2021 18:50 22,0 C 17,5 C 42 % 1008,6 hPa 0,0 l/m 5,3 km/h (1 Bft) W-SW 247 0 min 4,4 C 17,5 C 9,5 km/h (2 Bft)
23.09.2021 18:40 22,1 C 17,7 C 42 % 1008,7 hPa 0,0 l/m 5,8 km/h (2 Bft) SW 225 10 min 4,6 C 17,7 C 10,6 km/h (2 Bft)
23.09.2021 18:30 22,1 C 17,9 C 42 % 1008,7 hPa 0,0 l/m 5,5 km/h (1 Bft) W 270 10 min 4,8 C 17,9 C 7,6 km/h (2 Bft)
23.09.2021 18:20 22,2 C 18,3 C 40 % 1008,9 hPa 0,0 l/m 5,1 km/h (1 Bft) N 360 10 min 4,5 C 18,3 C 4,3 km/h (1 Bft)
23.09.2021 18:10 22,2 C 18,7 C 40 % 1008,9 hPa 0,0 l/m 6,6 km/h (2 Bft) S 180 10 min 4,8 C 18,6 C 8,9 km/h (2 Bft)
23.09.2021 18:00 22,3 C 18,9 C 39 % 1009,3 hPa 0,0 l/m 7,2 km/h (2 Bft) W 270 10 min 4,6 C 18,5 C 7,7 km/h (2 Bft)
23.09.2021 17:50 22,4 C 19,2 C 38 % 1009,3 hPa 0,0 l/m 8,2 km/h (2 Bft) W-SW 247 0 min 4,5 C 18,4 C 10,5 km/h (2 Bft)
23.09.2021 17:40 22,4 C 19,3 C 37 % 1009,9 hPa 0,0 l/m 7,1 km/h (2 Bft) W-SW 247 0 min 4,2 C 19,0 C 11,7 km/h (2 Bft)
23.09.2021 17:30 22,5 C 19,5 C 37 % 1009,9 hPa 0,0 l/m 9,0 km/h (2 Bft) N 360 0 min 4,4 C 18,4 C 24,0 km/h (4 Bft)
23.09.2021 17:20 22,5 C 19,7 C 37 % 1010,1 hPa 0,0 l/m 6,6 km/h (2 Bft) W 270 10 min 4,6 C 19,6 C 15,9 km/h (3 Bft)
23.09.2021 17:10 22,6 C 19,7 C 38 % 1010,1 hPa 0,0 l/m 6,3 km/h (2 Bft) W-SW 247 10 min 5,0 C 19,7 C 6,6 km/h (2 Bft)
23.09.2021 17:00 22,6 C 19,9 C 37 % 1010,5 hPa 0,0 l/m 7,2 km/h (2 Bft) W 270 10 min 4,8 C 19,6 C 6,1 km/h (2 Bft)
23.09.2021 16:50 22,6 C 19,9 C 37 % 1010,5 hPa 0,0 l/m 6,9 km/h (2 Bft) NW 315 0 min 4,8 C 19,7 C 19,0 km/h (3 Bft)
23.09.2021 16:40 22,8 C 20,1 C 37 % 1011,1 hPa 0,0 l/m 6,8 km/h (2 Bft) S 180 0 min 5,0 C 19,9 C 14,6 km/h (3 Bft)
23.09.2021 16:30 22,8 C 20,3 C 37 % 1011,1 hPa 0,0 l/m 7,7 km/h (2 Bft) W-NW 292 0 min 5,1 C 19,8 C 7,1 km/h (2 Bft)
23.09.2021 16:20 22,9 C 20,3 C 38 % 1011,5 hPa 0,0 l/m 8,0 km/h (2 Bft) W-NW 292 10 min 5,5 C 19,7 C 16,7 km/h (3 Bft)
23.09.2021 16:10 23,0 C 20,2 C 45 % 1011,5 hPa 0,0 l/m 5,3 km/h (1 Bft) S 180 10 min 7,9 C 20,2 C 14,6 km/h (3 Bft)
23.09.2021 16:00 22,9 C 19,8 C 48 % 1011,8 hPa 0,0 l/m 4,5 km/h (1 Bft) SW 225 10 min 8,5 C 19,8 C 8,9 km/h (2 Bft)
23.09.2021 15:50 23,0 C 19,9 C 47 % 1011,8 hPa 0,0 l/m 5,8 km/h (2 Bft) S 180 10 min 8,3 C 19,9 C 4,0 km/h (1 Bft)
23.09.2021 15:40 23,1 C 20,1 C 45 % 1012,3 hPa 0,0 l/m 6,8 km/h (2 Bft) S-SO 157 10 min 7,8 C 19,9 C 18,5 km/h (3 Bft)
23.09.2021 15:30 23,1 C 20,0 C 45 % 1012,3 hPa 0,0 l/m 6,4 km/h (2 Bft) S 180 10 min 7,7 C 20,0 C 11,4 km/h (2 Bft)
23.09.2021 15:20 23,1 C 20,0 C 44 % 1012,6 hPa 0,0 l/m 6,1 km/h (2 Bft) S-SO 157 10 min 7,4 C 20,0 C 6,6 km/h (2 Bft)
23.09.2021 15:10 23,1 C 20,3 C 46 % 1012,6 hPa 0,0 l/m 5,1 km/h (1 Bft) SO 135 10 min 8,3 C 20,3 C 8,9 km/h (2 Bft)
23.09.2021 15:00 23,1 C 19,7 C 47 % 1013,2 hPa 0,0 l/m 5,1 km/h (1 Bft) S-SO 157 10 min 8,1 C 19,7 C 14,5 km/h (3 Bft)
23.09.2021 14:50 23,2 C 19,7 C 46 % 1013,2 hPa 0,0 l/m 6,8 km/h (2 Bft) S 180 10 min 7,8 C 19,5 C 5,1 km/h (1 Bft)
23.09.2021 14:40 23,2 C 19,8 C 45 % 1013,4 hPa 0,0 l/m 5,6 km/h (1 Bft) S 180 10 min 7,5 C 19,8 C 6,6 km/h (2 Bft)
23.09.2021 14:30 23,1 C 20,3 C 44 % 1013,4 hPa 0,0 l/m 7,1 km/h (2 Bft) O-SO 112 10 min 7,6 C 20,0 C 8,0 km/h (2 Bft)
23.09.2021 14:20 23,0 C 20,1 C 43 % 1013,6 hPa 0,0 l/m 6,4 km/h (2 Bft) S-SW 202 10 min 7,1 C 20,1 C 10,6 km/h (2 Bft)
23.09.2021 14:10 22,9 C 19,8 C 43 % 1013,6 hPa 0,0 l/m 6,0 km/h (2 Bft) S-SO 157 10 min 6,9 C 19,8 C 6,9 km/h (2 Bft)
23.09.2021 14:00 22,8 C 19,5 C 44 % 1013,8 hPa 0,0 l/m 6,0 km/h (2 Bft) S-SW 202 10 min 6,9 C 19,5 C 6,0 km/h (2 Bft)
23.09.2021 13:50 22,8 C 19,8 C 42 % 1013,8 hPa 0,0 l/m 8,0 km/h (2 Bft) SW 225 10 min 6,5 C 19,1 C 10,5 km/h (2 Bft)
23.09.2021 13:40 22,6 C 19,9 C 40 % 1014,1 hPa 0,0 l/m 6,9 km/h (2 Bft) W 270 10 min 5,9 C 19,7 C 14,6 km/h (3 Bft)
23.09.2021 13:30 22,6 C 19,9 C 42 % 1014,1 hPa 0,0 l/m 7,7 km/h (2 Bft) S 180 10 min 6,6 C 19,4 C 15,0 km/h (3 Bft)
23.09.2021 13:20 22,6 C 19,6 C 42 % 1014,4 hPa 0,0 l/m 6,4 km/h (2 Bft) S 180 10 min 6,3 C 19,6 C 10,5 km/h (2 Bft)
23.09.2021 13:10 22,6 C 19,6 C 43 % 1014,4 hPa 0,0 l/m 6,9 km/h (2 Bft) W 270 0 min 6,7 C 19,4 C 6,1 km/h (2 Bft)
23.09.2021 13:00 22,6 C 19,4 C 42 % 1014,4 hPa 0,0 l/m 6,9 km/h (2 Bft) S 180 10 min 6,2 C 19,2 C 5,0 km/h (1 Bft)
23.09.2021 12:50 22,7 C 19,9 C 43 % 1014,4 hPa 0,0 l/m 6,4 km/h (2 Bft) S-SO 157 10 min 6,9 C 19,9 C 3,2 km/h (1 Bft)
23.09.2021 12:40 22,7 C 20,1 C 43 % 1015,1 hPa 0,0 l/m 6,6 km/h (2 Bft) W-SW 247 10 min 7,1 C 20,0 C 8,7 km/h (2 Bft)
23.09.2021 12:30 22,6 C 19,7 C 46 % 1015,1 hPa 0,0 l/m 6,8 km/h (2 Bft) W-SW 247 10 min 7,8 C 19,5 C 9,7 km/h (2 Bft)
23.09.2021 12:20 22,5 C 19,2 C 48 % 1014,9 hPa 0,0 l/m 7,2 km/h (2 Bft) S 180 10 min 7,9 C 18,9 C 9,5 km/h (2 Bft)
23.09.2021 12:10 22,4 C 19,0 C 51 % 1014,9 hPa 0,0 l/m 6,4 km/h (2 Bft) W-SW 247 10 min 8,6 C 19,0 C 8,7 km/h (2 Bft)
23.09.2021 12:00 22,3 C 18,3 C 51 % 1015,4 hPa 0,0 l/m 6,3 km/h (2 Bft) SW 225 10 min 8,0 C 18,3 C 6,0 km/h (2 Bft)
23.09.2021 11:50 22,2 C 18,5 C 53 % 1015,4 hPa 0,0 l/m 7,1 km/h (2 Bft) W 270 10 min 8,7 C 18,2 C 9,7 km/h (2 Bft)
23.09.2021 11:40 22,0 C 17,7 C 55 % 1015,4 hPa 0,0 l/m 5,6 km/h (1 Bft) W-SW 247 10 min 8,5 C 17,7 C 12,6 km/h (3 Bft)
23.09.2021 11:30 21,8 C 17,3 C 54 % 1015,4 hPa 0,0 l/m 5,5 km/h (1 Bft) W 270 10 min 7,9 C 17,3 C 5,0 km/h (1 Bft)
23.09.2021 11:20 21,8 C 16,6 C 57 % 1015,6 hPa 0,0 l/m 5,6 km/h (1 Bft) W 270 0 min 8,0 C 16,6 C 7,4 km/h (2 Bft)
23.09.2021 11:10 21,8 C 16,7 C 54 % 1015,6 hPa 0,0 l/m 6,3 km/h (2 Bft) S-SW 202 10 min 7,3 C 16,7 C 6,6 km/h (2 Bft)
23.09.2021 11:00 21,7 C 18,0 C 53 % 1015,6 hPa 0,0 l/m 6,1 km/h (2 Bft) S-SW 202 10 min 8,3 C 18,0 C 6,1 km/h (2 Bft)
23.09.2021 10:50 21,6 C 17,1 C 57 % 1015,6 hPa 0,0 l/m 5,5 km/h (1 Bft) NW 315 10 min 8,5 C 17,1 C 5,0 km/h (1 Bft)
23.09.2021 10:40 21,4 C 16,4 C 58 % 1015,8 hPa 0,0 l/m 6,0 km/h (2 Bft) S 180 10 min 8,1 C 16,4 C 18,3 km/h (3 Bft)
23.09.2021 10:30 21,3 C 16,3 C 60 % 1015,8 hPa 0,0 l/m 4,7 km/h (1 Bft) SO 135 10 min 8,5 C 16,3 C 9,0 km/h (2 Bft)
23.09.2021 10:20 21,2 C 15,7 C 60 % 1015,9 hPa 0,0 l/m 5,0 km/h (1 Bft) W 270 10 min 8,0 C 15,7 C 5,8 km/h (2 Bft)
23.09.2021 10:10 21,2 C 15,6 C 63 % 1015,9 hPa 0,0 l/m 4,3 km/h (1 Bft) N-NO 22 0 min 8,6 C 15,6 C 11,4 km/h (2 Bft)
23.09.2021 10:00 21,2 C 15,1 C 63 % 1016,1 hPa 0,0 l/m 4,3 km/h (1 Bft) W-SW 247 0 min 8,1 C 15,1 C 15,0 km/h (3 Bft)
23.09.2021 09:50 21,1 C 15,3 C 64 % 1016,1 hPa 0,0 l/m 3,4 km/h (1 Bft) W 270 10 min 8,5 C 15,3 C 3,7 km/h (1 Bft)
23.09.2021 09:40 21,0 C 14,8 C 67 % 1016,3 hPa 0,0 l/m 3,1 km/h (1 Bft) S-SW 202 10 min 8,7 C 14,8 C 3,1 km/h (1 Bft)
23.09.2021 09:30 21,0 C 14,2 C 68 % 1016,3 hPa 0,0 l/m 3,2 km/h (1 Bft) SW 225 10 min 8,4 C 14,2 C 2,4 km/h (1 Bft)
23.09.2021 09:20 21,0 C 13,7 C 69 % 1016,3 hPa 0,0 l/m 2,4 km/h (1 Bft) W-SW 247 10 min 8,1 C 13,7 C 1,9 km/h (1 Bft)
23.09.2021 09:10 20,9 C 13,5 C 69 % 1016,3 hPa 0,0 l/m 1,3 km/h (1 Bft) W 270 10 min 7,9 C 13,5 C 0,0 km/h (0 Bft)
23.09.2021 09:00 20,8 C 13,1 C 70 % 1016,2 hPa 0,0 l/m 2,1 km/h (1 Bft) S-SW 202 10 min 7,8 C 13,1 C 0,0 km/h (0 Bft)
23.09.2021 08:50 20,8 C 12,5 C 72 % 1016,2 hPa 0,0 l/m 2,7 km/h (1 Bft) S 180 10 min 7,6 C 12,5 C 6,4 km/h (2 Bft)
23.09.2021 08:40 20,8 C 12,0 C 73 % 1016,2 hPa 0,0 l/m 2,3 km/h (1 Bft) SW 225 10 min 7,3 C 12,0 C 5,5 km/h (1 Bft)
23.09.2021 08:30 20,8 C 11,7 C 74 % 1016,2 hPa 0,0 l/m 3,1 km/h (1 Bft) S 180 10 min 7,2 C 11,7 C 3,4 km/h (1 Bft)
23.09.2021 08:20 20,7 C 11,5 C 74 % 1016,3 hPa 0,0 l/m 2,9 km/h (1 Bft) NO 45 10 min 7,0 C 11,5 C 6,9 km/h (2 Bft)
23.09.2021 08:10 20,6 C 11,4 C 75 % 1016,3 hPa 0,0 l/m 2,9 km/h (1 Bft) SO 135 0 min 7,1 C 11,4 C 6,4 km/h (2 Bft)
23.09.2021 08:00 20,5 C 11,1 C 75 % 1016,4 hPa 0,0 l/m 2,6 km/h (1 Bft) W-SW 247 0 min 6,8 C 11,1 C 3,4 km/h (1 Bft)
23.09.2021 07:50 20,5 C 11,1 C 75 % 1016,4 hPa 0,0 l/m 1,8 km/h (1 Bft) W 270 0 min 6,8 C 11,1 C 0,0 km/h (0 Bft)
23.09.2021 07:40 20,5 C 11,0 C 75 % 1016,6 hPa 0,0 l/m 1,8 km/h (1 Bft) S 180 0 min 6,7 C 11,0 C 2,3 km/h (1 Bft)
23.09.2021 07:30 20,8 C 10,8 C 76 % 1016,6 hPa 0,0 l/m 2,6 km/h (1 Bft) W-SW 247 0 min 6,7 C 10,8 C 6,3 km/h (2 Bft)
23.09.2021 07:20 20,8 C 10,8 C 75 % 1016,9 hPa 0,0 l/m 2,1 km/h (1 Bft) S-SO 157 0 min 6,5 C 10,8 C 5,5 km/h (1 Bft)
23.09.2021 07:10 20,8 C 10,8 C 75 % 1016,9 hPa 0,0 l/m 2,3 km/h (1 Bft) W 270 0 min 6,5 C 10,8 C 2,7 km/h (1 Bft)
23.09.2021 06:59 20,8 C 10,9 C 75 % 1017,0 hPa 0,0 l/m 2,3 km/h (1 Bft) SW 225 0 min 6,6 C 10,9 C 4,8 km/h (1 Bft)
23.09.2021 06:50 20,8 C 10,9 C 75 % 1017,0 hPa 0,0 l/m 2,3 km/h (1 Bft) W-SW 247 0 min 6,6 C 10,9 C 0,0 km/h (0 Bft)
23.09.2021 06:40 20,8 C 10,9 C 75 % 1017,0 hPa 0,0 l/m 1,4 km/h (1 Bft) W-SW 247 0 min 6,6 C 10,9 C 5,5 km/h (1 Bft)
23.09.2021 06:30 20,9 C 11,0 C 74 % 1017,0 hPa 0,0 l/m 2,6 km/h (1 Bft) W-SW 247 0 min 6,5 C 11,0 C 0,0 km/h (0 Bft)
23.09.2021 06:20 20,9 C 11,1 C 74 % 1017,3 hPa 0,0 l/m 3,4 km/h (1 Bft) SO 135 0 min 6,6 C 11,1 C 5,3 km/h (1 Bft)
23.09.2021 06:10 20,9 C 11,2 C 74 % 1017,3 hPa 0,0 l/m 2,7 km/h (1 Bft) SW 225 0 min 6,7 C 11,2 C 8,4 km/h (2 Bft)
23.09.2021 06:00 20,9 C 11,0 C 73 % 1017,3 hPa 0,0 l/m 1,9 km/h (1 Bft) NW 315 0 min 6,4 C 11,0 C 4,3 km/h (1 Bft)
23.09.2021 05:50 20,9 C 11,0 C 73 % 1017,3 hPa 0,0 l/m 1,9 km/h (1 Bft) W-SW 247 0 min 6,4 C 11,0 C 0,0 km/h (0 Bft)
23.09.2021 05:40 20,9 C 11,0 C 73 % 1017,3 hPa 0,0 l/m 2,6 km/h (1 Bft) S 180 0 min 6,4 C 11,0 C 3,7 km/h (1 Bft)
23.09.2021 05:30 20,9 C 11,0 C 73 % 1017,3 hPa 0,0 l/m 2,4 km/h (1 Bft) SW 225 0 min 6,4 C 11,0 C 4,0 km/h (1 Bft)
23.09.2021 05:20 20,9 C 11,2 C 72 % 1017,9 hPa 0,0 l/m 3,2 km/h (1 Bft) SW 225 0 min 6,3 C 11,2 C 2,1 km/h (1 Bft)
23.09.2021 05:10 21,0 C 11,3 C 72 % 1017,9 hPa 0,0 l/m 2,7 km/h (1 Bft) SW 225 0 min 6,4 C 11,3 C 2,6 km/h (1 Bft)
23.09.2021 05:00 21,0 C 11,3 C 72 % 1017,9 hPa 0,0 l/m 3,1 km/h (1 Bft) SW 225 0 min 6,4 C 11,3 C 4,8 km/h (1 Bft)
23.09.2021 04:50 21,0 C 11,4 C 71 % 1017,9 hPa 0,0 l/m 2,4 km/h (1 Bft) SW 225 0 min 6,3 C 11,4 C 1,8 km/h (1 Bft)
23.09.2021 04:40 21,0 C 11,6 C 70 % 1018,2 hPa 0,0 l/m 2,7 km/h (1 Bft) S 180 0 min 6,3 C 11,6 C 4,7 km/h (1 Bft)
23.09.2021 04:30 21,0 C 11,9 C 69 % 1018,2 hPa 0,0 l/m 3,2 km/h (1 Bft) S 180 0 min 6,4 C 11,9 C 6,1 km/h (2 Bft)
23.09.2021 04:20 21,0 C 11,9 C 69 % 1018,5 hPa 0,0 l/m 2,7 km/h (1 Bft) W-SW 247 0 min 6,4 C 11,9 C 8,0 km/h (2 Bft)
23.09.2021 04:10 21,0 C 12,0 C 68 % 1018,5 hPa 0,0 l/m 2,4 km/h (1 Bft) S-SO 157 0 min 6,3 C 12,0 C 1,9 km/h (1 Bft)
23.09.2021 04:00 21,0 C 12,0 C 68 % 1018,7 hPa 0,0 l/m 2,7 km/h (1 Bft) NW 315 0 min 6,3 C 12,0 C 2,4 km/h (1 Bft)
23.09.2021 03:50 21,0 C 12,1 C 68 % 1018,7 hPa 0,0 l/m 2,7 km/h (1 Bft) S 180 0 min 6,4 C 12,1 C 4,5 km/h (1 Bft)
23.09.2021 03:40 21,0 C 12,1 C 68 % 1018,9 hPa 0,0 l/m 2,9 km/h (1 Bft) W 270 0 min 6,4 C 12,1 C 3,5 km/h (1 Bft)
23.09.2021 03:30 21,0 C 12,0 C 69 % 1018,9 hPa 0,0 l/m 3,7 km/h (1 Bft) S-SW 202 0 min 6,5 C 12,0 C 4,0 km/h (1 Bft)
23.09.2021 03:20 21,1 C 11,9 C 69 % 1018,7 hPa 0,0 l/m 2,4 km/h (1 Bft) SW 225 0 min 6,4 C 11,9 C 5,3 km/h (1 Bft)
23.09.2021 03:10 21,1 C 11,9 C 69 % 1018,7 hPa 0,0 l/m 3,4 km/h (1 Bft) W-SW 247 0 min 6,4 C 11,9 C 4,0 km/h (1 Bft)
23.09.2021 03:00 21,1 C 11,7 C 70 % 1018,8 hPa 0,0 l/m 2,6 km/h (1 Bft) W-SW 247 0 min 6,4 C 11,7 C 2,4 km/h (1 Bft)
23.09.2021 02:50 21,1 C 11,5 C 70 % 1018,8 hPa 0,0 l/m 2,6 km/h (1 Bft) S 180 0 min 6,2 C 11,5 C 1,8 km/h (1 Bft)
23.09.2021 02:40 21,1 C 11,6 C 69 % 1018,9 hPa 0,0 l/m 2,1 km/h (1 Bft) SW 225 0 min 6,1 C 11,6 C 6,1 km/h (2 Bft)
23.09.2021 02:30 21,1 C 11,9 C 69 % 1018,9 hPa 0,0 l/m 2,6 km/h (1 Bft) W 270 0 min 6,4 C 11,9 C 4,2 km/h (1 Bft)
23.09.2021 02:20 21,1 C 11,9 C 69 % 1019,3 hPa 0,0 l/m 2,7 km/h (1 Bft) W-SW 247 0 min 6,4 C 11,9 C 5,8 km/h (2 Bft)
23.09.2021 02:10 21,2 C 12,0 C 69 % 1019,3 hPa 0,0 l/m 2,1 km/h (1 Bft) W 270 0 min 6,5 C 12,0 C 3,5 km/h (1 Bft)
23.09.2021 02:00 21,2 C 12,0 C 69 % 1019,5 hPa 0,0 l/m 2,4 km/h (1 Bft) W-SW 247 0 min 6,5 C 12,0 C 1,9 km/h (1 Bft)
23.09.2021 01:50 21,2 C 11,9 C 70 % 1019,5 hPa 0,0 l/m 3,1 km/h (1 Bft) NW 315 0 min 6,6 C 11,9 C 6,9 km/h (2 Bft)
23.09.2021 01:40 21,2 C 11,7 C 71 % 1019,6 hPa 0,0 l/m 2,4 km/h (1 Bft) W 270 0 min 6,6 C 11,7 C 8,2 km/h (2 Bft)
23.09.2021 01:30 21,2 C 11,5 C 71 % 1019,6 hPa 0,0 l/m 2,6 km/h (1 Bft) W 270 0 min 6,4 C 11,5 C 1,9 km/h (1 Bft)
23.09.2021 01:20 21,2 C 11,4 C 72 % 1019,9 hPa 0,0 l/m 3,5 km/h (1 Bft) S 180 0 min 6,5 C 11,4 C 12,7 km/h (3 Bft)
23.09.2021 01:10 21,3 C 11,4 C 71 % 1019,9 hPa 0,0 l/m 2,9 km/h (1 Bft) SO 135 0 min 6,3 C 11,4 C 10,5 km/h (2 Bft)
23.09.2021 01:00 21,3 C 11,4 C 72 % 1020,0 hPa 0,0 l/m 2,9 km/h (1 Bft) W 270 0 min 6,5 C 11,4 C 8,9 km/h (2 Bft)
23.09.2021 00:50 21,3 C 11,3 C 72 % 1020,0 hPa 0,0 l/m 2,4 km/h (1 Bft) W-SW 247 0 min 6,4 C 11,3 C 7,7 km/h (2 Bft)
23.09.2021 00:40 21,2 C 11,3 C 71 % 1020,5 hPa 0,0 l/m 2,1 km/h (1 Bft) S 180 0 min 6,2 C 11,3 C 6,9 km/h (2 Bft)
23.09.2021 00:30 21,2 C 11,3 C 71 % 1020,5 hPa 0,0 l/m 1,1 km/h (1 Bft) S 180 0 min 6,2 C 11,3 C 0,0 km/h (0 Bft)
23.09.2021 00:20 21,4 C 11,3 C 70 % 1020,6 hPa 0,0 l/m 1,3 km/h (1 Bft) S 180 0 min 6,0 C 11,3 C 1,9 km/h (1 Bft)
23.09.2021 00:10 21,4 C 11,8 C 69 % 1020,6 hPa 0,0 l/m 1,4 km/h (1 Bft) S-SW 202 0 min 6,3 C 11,8 C 4,2 km/h (1 Bft)
23.09.2021 00:00 21,4 C 12,3 C 67 % 1020,8 hPa 0,0 l/m 1,1 km/h (1 Bft) W-SW 247 0 min 6,4 C 12,3 C 2,9 km/h (1 Bft)
_ Min-Zeit 07:40 07:10 16:30 21:10 - 00:00 - - - 20:10 07:10 00:30
Minimum _ 20,5 C 10,8 C 37 % 1006,6 hPa - 1,1 km/h (1 Bft) - - - 4,0 C 10,8 C 0,0 km/h (0 Bft)
_ Max-Zeit 14:40 14:30 07:30 00:00 00:00 23:00 - - 08:20 11:50 15:10 22:40
Maximum _ 23,2 C 20,3 C 76 % 1020,8 hPa 0,0 l/m 11,9 km/h
NW (2 Bft)
- - 10 min 8,7 C 20,3 C 28,2 km/h
NW (4 Bft)
Durchschnitt _ 21,7 C 15,5 C 56 % 1014,2 hPa #0,0 l/m 4,9 km/h (1 Bft) W-SW - #8:50 h 6,3 C 15,3 C 7,8 km/h (2 Bft)

©39322 Markus Bahr